• In Germany
  • List of Countries
  • For 7 days
  • Water Temperature
  • Satellite Maps
  • Weather Map
  • Weather Widgets
  • user-avatar
    Login

    Hourly Weather Giumri

    Today, 23 May, Wednesday

    Time Temperature Precipitation Wind Pressure Humidity
    00:00 +13°C° 0.3 mm 1 mps 637 mmHg 94%
    01:00 +13°C° 0.2 mm 1 mps 637 mmHg 94%
    02:00 +12°C° 0.2 mm 1 mps 637 mmHg 95%
    03:00 +12°C° 0 mm 1 mps 636 mmHg 96%
    04:00 +12°C° 0.2 mm 1 mps 636 mmHg 94%
    05:00 +12°C° 0.2 mm 1 mps 637 mmHg 93%
    06:00 +12°C° 0.2 mm 1 mps 637 mmHg 91%
    07:00 +14°C° 0.1 mm 2 mps 637 mmHg 86%
    08:00 +15°C° 0.1 mm 2 mps 638 mmHg 81%
    09:00 +16°C° 0.1 mm 2 mps 638 mmHg 75%
    10:00 +17°C° 0.2 mm 3 mps 638 mmHg 73%
    11:00 +18°C° 0.2 mm 3 mps 638 mmHg 70%
    12:00 +19°C° 0.2 mm 4 mps 638 mmHg 67%
    13:00 +19°C° 0.4 mm 4 mps 638 mmHg 66%
    14:00 +19°C° 0.4 mm 4 mps 638 mmHg 65%
    15:00 +20°C° 0.4 mm 4 mps 638 mmHg 64%
    16:00 +19°C° 0.5 mm 4 mps 637 mmHg 68%
    17:00 +18°C° 0.5 mm 4 mps 637 mmHg 71%
    18:00 +18°C° 0.5 mm 3 mps 637 mmHg 75%
    19:00 +16°C° 0.3 mm 3 mps 637 mmHg 79%
    20:00 +13°C° 0.3 mm 3 mps 636 mmHg 84%
    21:00 +13°C° 0.3 mm 2 mps 636 mmHg 88%
    22:00 +12°C° 0.1 mm 2 mps 636 mmHg 87%
    23:00 +12°C° 0.1 mm 2 mps 636 mmHg 85%

    Tomorrow, 24 May, Thursday

    Time Temperature Precipitation Wind Pressure Humidity
    00:00 +10°C° 0.1 mm 2 mps 636 mmHg 83%
    01:00 +10°C° 0.1 mm 2 mps 635 mmHg 81%
    02:00 +9°C° 0.1 mm 2 mps 635 mmHg 80%
    03:00 +9°C° 0.1 mm 2 mps 635 mmHg 78%
    04:00 +9°C° 0 mm 2 mps 635 mmHg 77%
    05:00 +10°C° 0 mm 2 mps 635 mmHg 76%
    06:00 +10°C° 0 mm 2 mps 635 mmHg 75%
    07:00 +13°C° 0 mm 2 mps 636 mmHg 69%
    08:00 +15°C° 0 mm 2 mps 636 mmHg 63%
    09:00 +17°C° 0 mm 2 mps 636 mmHg 57%
    10:00 +18°C° 0 mm 3 mps 636 mmHg 55%
    11:00 +19°C° 0 mm 3 mps 636 mmHg 53%
    12:00 +20°C° 0 mm 3 mps 636 mmHg 51%
    13:00 +20°C° 0.1 mm 3 mps 636 mmHg 52%
    14:00 +21°C° 0.1 mm 3 mps 636 mmHg 52%
    15:00 +21°C° 0.1 mm 4 mps 635 mmHg 53%
    16:00 +20°C° 0.3 mm 3 mps 635 mmHg 57%
    17:00 +19°C° 0.3 mm 3 mps 635 mmHg 62%
    18:00 +18°C° 0.3 mm 3 mps 634 mmHg 66%
    19:00 +16°C° 0.2 mm 2 mps 634 mmHg 71%
    20:00 +15°C° 0.2 mm 2 mps 634 mmHg 75%
    21:00 +13°C° 0.2 mm 1 mps 633 mmHg 80%
    22:00 +12°C° 0 mm 1 mps 633 mmHg 80%
    23:00 +12°C° 0 mm 1 mps 633 mmHg 80%

    Day after tomorrow, 25 May, Friday

    Time Temperature Precipitation Wind Pressure Humidity
    00:00 +11°C° 0 mm 1 mps 632 mmHg 80%
    01:00 +11°C° 0 mm 1 mps 632 mmHg 80%
    02:00 +11°C° 0 mm 1 mps 632 mmHg 80%
    03:00 +10°C° 0 mm 1 mps 631 mmHg 80%
    04:00 +11°C° 0 mm 1 mps 632 mmHg 78%
    05:00 +12°C° 0 mm 1 mps 632 mmHg 77%
    06:00 +13°C° 0 mm 1 mps 632 mmHg 75%
    07:00 +14°C° 0.1 mm 1 mps 632 mmHg 70%
    08:00 +16°C° 0.1 mm 1 mps 633 mmHg 65%
    09:00 +18°C° 0.1 mm 2 mps 633 mmHg 59%
    10:00 +19°C° 0.2 mm 2 mps 633 mmHg 58%
    11:00 +20°C° 0.2 mm 2 mps 633 mmHg 56%
    12:00 +21°C° 0.2 mm 2 mps 633 mmHg 54%
    13:00 +21°C° 1 mm 2 mps 633 mmHg 55%
    14:00 +21°C° 1 mm 3 mps 633 mmHg 56%
    15:00 +22°C° 1 mm 3 mps 633 mmHg 57%
    16:00 +21°C° 1.3 mm 2 mps 633 mmHg 62%
    17:00 +20°C° 1.3 mm 2 mps 632 mmHg 67%
    18:00 +20°C° 1.3 mm 1 mps 632 mmHg 71%
    19:00 +18°C° 0.9 mm 1 mps 632 mmHg 75%
    20:00 +16°C° 0.9 mm 1 mps 632 mmHg 78%
    21:00 +15°C° 0.9 mm 1 mps 632 mmHg 82%
    22:00 +14°C° 0.5 mm 1 mps 632 mmHg 83%
    23:00 +14°C° 0.5 mm 1 mps 632 mmHg 84%

    26 May, Saturday

    Time Temperature Precipitation Wind Pressure Humidity
    00:00 +14°C° 0.5 mm 1 mps 632 mmHg 85%
    01:00 +13°C° 0.3 mm 1 mps 632 mmHg 85%
    02:00 +13°C° 0.3 mm 1 mps 632 mmHg 86%
    03:00 +11°C° 0.3 mm 0 mps 631 mmHg 87%
    04:00 +12°C° 0.2 mm 0 mps 632 mmHg 86%
    05:00 +14°C° 0.2 mm 1 mps 632 mmHg 85%
    06:00 +14°C° 0.2 mm 1 mps 633 mmHg 83%
    07:00 +16°C° 0.2 mm 1 mps 633 mmHg 77%
    08:00 +18°C° 0.2 mm 1 mps 633 mmHg 71%
    09:00 +20°C° 0.2 mm 1 mps 634 mmHg 65%
    10:00 +20°C° 0.7 mm 2 mps 634 mmHg 62%
    11:00 +21°C° 0.7 mm 2 mps 634 mmHg 59%
    12:00 +23°C° 0.7 mm 2 mps 634 mmHg 57%
    13:00 +23°C° 1.9 mm 2 mps 634 mmHg 57%
    14:00 +23°C° 1.9 mm 2 mps 634 mmHg 58%
    15:00 +23°C° 1.9 mm 1 mps 633 mmHg 59%
    16:00 +22°C° 2.2 mm 1 mps 633 mmHg 64%
    17:00 +21°C° 2.2 mm 1 mps 633 mmHg 69%
    18:00 +20°C° 2.2 mm 1 mps 633 mmHg 74%
    19:00 +19°C° 2 mm 1 mps 633 mmHg 79%
    20:00 +16°C° 2 mm 2 mps 633 mmHg 83%
    21:00 +15°C° 2 mm 2 mps 634 mmHg 88%
    22:00 +15°C° 1.3 mm 2 mps 634 mmHg 89%
    23:00 +14°C° 1.3 mm 1 mps 634 mmHg 90%

    27 May, Sunday

    Time Temperature Precipitation Wind Pressure Humidity
    00:00 +14°C° 1.3 mm 1 mps 634 mmHg 92%
    01:00 +13°C° 0.3 mm 1 mps 634 mmHg 91%
    02:00 +13°C° 0.3 mm 1 mps 634 mmHg 91%
    03:00 +13°C° 0.3 mm 1 mps 634 mmHg 90%
    04:00 +13°C° 0.2 mm 1 mps 634 mmHg 90%
    05:00 +13°C° 0.2 mm 1 mps 635 mmHg 89%
    06:00 +14°C° 0.2 mm 1 mps 635 mmHg 89%
    07:00 +15°C° 0 mm 1 mps 636 mmHg 83%
    08:00 +17°C° 0 mm 2 mps 636 mmHg 78%
    09:00 +19°C° 0 mm 2 mps 637 mmHg 72%
    10:00 +19°C° 0.1 mm 2 mps 637 mmHg 68%
    11:00 +20°C° 0.1 mm 3 mps 637 mmHg 64%
    12:00 +21°C° 0.1 mm 3 mps 638 mmHg 60%
    13:00 +21°C° 0.3 mm 3 mps 638 mmHg 60%
    14:00 +21°C° 0.3 mm 3 mps 638 mmHg 60%
    15:00 +21°C° 0.3 mm 2 mps 638 mmHg 59%
    16:00 +20°C° 0.4 mm 3 mps 637 mmHg 65%
    17:00 +19°C° 0.4 mm 3 mps 637 mmHg 71%
    18:00 +18°C° 0.4 mm 3 mps 637 mmHg 77%
    19:00 +17°C° 0.1 mm 3 mps 637 mmHg 81%
    20:00 +15°C° 0.1 mm 2 mps 637 mmHg 85%
    21:00 +14°C° 0.1 mm 2 mps 637 mmHg 89%
    22:00 +14°C° 0 mm 2 mps 637 mmHg 90%
    23:00 +13°C° 0 mm 2 mps 637 mmHg 91%

    28 May, Monday

    Time Temperature Precipitation Wind Pressure Humidity
    00:00 +13°C° 0 mm 2 mps 637 mmHg 93%
    01:00 +12°C° 0 mm 1 mps 637 mmHg 92%
    02:00 +12°C° 0 mm 1 mps 636 mmHg 92%
    03:00 +12°C° 0 mm 1 mps 636 mmHg 91%
    04:00 +13°C° 0 mm 1 mps 636 mmHg 88%
    05:00 +13°C° 0 mm 1 mps 637 mmHg 84%
    06:00 +14°C° 0 mm 1 mps 637 mmHg 80%
    07:00 +18°C° 0 mm 1 mps 637 mmHg 73%
    08:00 +19°C° 0 mm 2 mps 638 mmHg 65%
    09:00 +21°C° 0 mm 2 mps 638 mmHg 58%
    10:00 +23°C° 0.1 mm 2 mps 638 mmHg 55%
    11:00 +24°C° 0.1 mm 2 mps 638 mmHg 52%
    12:00 +25°C° 0.1 mm 3 mps 638 mmHg 48%
    13:00 +25°C° 0.5 mm 2 mps 637 mmHg 49%
    14:00 +25°C° 0.5 mm 2 mps 637 mmHg 50%
    15:00 +25°C° 0.5 mm 2 mps 637 mmHg 51%
    16:00 +24°C° 1.1 mm 2 mps 637 mmHg 58%
    17:00 +23°C° 1.1 mm 2 mps 636 mmHg 65%
    18:00 +20°C° 1.1 mm 2 mps 636 mmHg 72%
    19:00 +20°C° 1 mm 1 mps 636 mmHg 76%
    20:00 +19°C° 1 mm 1 mps 636 mmHg 81%
    21:00 +16°C° 1 mm 1 mps 636 mmHg 85%
    22:00 +16°C° 0.3 mm 1 mps 636 mmHg 87%
    23:00 +15°C° 0.3 mm 1 mps 636 mmHg 88%
    Show more